Content
SEND FEEDBACK

Daily
Averages
Monthly
Summary
United States of America

RIMROCK, ARIZONA


Home > North America > United States > Arizona
Elevation: 1167 meters     Latitude: 34 40N     Longitude: 111 43W

WEATHER
 
SELECT A DAY
Number of Records: 140,135;   Date Range: 1/4/95 - 11/25/14
 
SHARE

PRINT THIS DATA

[ ← Previous Day ]
WEATHER ALMANAC - 4 JULY, 2014
[ Next Day → ]
[ °F ]   °C
Weather ElementAverageHighLow
Temperature25.4 °C34 °C (2:55 pm)20 °C (4:35 am)
Dewpoint10.7 °C16 °C (8:35 pm)7 °C (1:15 pm)
Humidity43.1 %78 % (8:35 pm)20 % (2:55 pm)
Barometer1023.7 hPa1025.7 hPa (10:55 pm)1021 hPa (5:15 pm)
Wind Speed14.3 km/h35.2 km/h (6:15 pm)
Wind Gust46.3 km/h (6:15 pm)
Weather ElementAverage
Visibility16.1 km
Wind DirectionSSE (159.9 °)

Weather ElementTotal
Precipitation---
Cooling Degree Days8.7 (Base 18.3)
Growing Degree Days17 (Base 10)
Averaged from 69 records on 4 July, 2014
WEATHER CONDITIONS BREAKOUT
WIND DIRECTION BREAKOUT
WEATHER BY HOUR - 4 JULY, 2014
[ °F ]   °C
Local TimeTemperatureDewpointHumidityBarometerVisibilityWind DirectionWind SpeedGust SpeedPrecipitationEventsConditions
12:35 AM23 °C8 °C38 %1023.4 hPa16.1 kmSouth (170°)13 km/hClear
12:55 AM23 °C10 °C44 %1023.7 hPa16.1 kmSouth (170°)13 km/hScattered Clouds
1:15 AM22 °C11 °C50 %1023.7 hPa16.1 kmSSE (150°)27.8 km/hMostly Cloudy
1:35 AM22 °C12 °C53 %1024 hPa16.1 kmSSE (160°)9.3 km/hOvercast
1:55 AM21 °C12 °C56 %1024 hPa16.1 kmSSE (160°)7.4 km/hMostly Cloudy
2:15 AM21 °C12 °C56 %1023.7 hPa16.1 kmSSE (160°)24.1 km/hScattered Clouds
2:35 AM21 °C12 °C56 %1024.4 hPa16.1 kmSSE (160°)9.3 km/hClear
2:55 AM21 °C12 °C56 %1024.7 hPa16.1 kmNW (320°)7.4 km/hClear
3:15 AM21 °C12 °C56 %1024.7 hPa16.1 kmWNW (300°)9.3 km/hClear
3:35 AM21 °C12 °C56 %1025.1 hPa16.1 kmWest (280°)7.4 km/hClear
3:55 AM21 °C12 °C56 %1025.1 hPa16.1 kmWNW (300°)11.1 km/hScattered Clouds
4:15 AM21 °C13 °C60 %1025.1 hPa16.1 kmNNW (340°)11.1 km/hMostly Cloudy
4:35 AM20 °C13 °C64 %1025.4 hPa16.1 kmNNE (30°)16.7 km/hMostly Cloudy
4:55 AM20 °C13 °C64 %1025.1 hPa16.1 kmNNE (30°)14.8 km/hScattered Clouds
5:15 AM20 °C12 °C60 %1024.7 hPa16.1 kmNNE (20°)13 km/hClear
5:35 AM21 °C12 °C56 %1024.7 hPa16.1 kmNNE (20°)14.8 km/hClear
5:55 AM21 °C12 °C56 %1024.7 hPa16.1 kmNNE (30°)14.8 km/hScattered Clouds
6:15 AM21 °C12 °C56 %1024.7 hPa16.1 kmNE (50°)14.8 km/hScattered Clouds
6:35 AM21 °C12 °C56 %1024.4 hPa16.1 kmNE (40°)14.8 km/hClear
6:55 AM21 °C12 °C56 %1024.4 hPa16.1 kmNE (40°)9.3 km/hClear
7:15 AM22 °C11 °C50 %1024.4 hPa16.1 kmCalmClear
7:35 AM22 °C12 °C53 %1024.7 hPa16.1 kmNW (310°)9.3 km/hScattered Clouds
7:55 AM23 °C12 °C50 %1024.7 hPa16.1 kmNE (40°)7.4 km/hOvercast
8:15 AM23 °C12 °C50 %1024.7 hPa16.1 kmCalmScattered Clouds
8:35 AM23 °C11 °C47 %1024.4 hPa16.1 kmCalmClear
9:15 AM26 °C10 °C36 %1024.4 hPa16.1 kmCalmClear
9:35 AM26 °C10 °C36 %1024.4 hPa16.1 kmWest (270°)7.4 km/hClear
9:55 AM28 °C10 °C32 %1024.4 hPa16.1 kmSE (140°)7.4 km/hClear
10:15 AM27 °C10 °C34 %1024.4 hPa16.1 kmSouth (180°)5.6 km/hClear
10:35 AM29 °C10 °C30 %1024 hPa16.1 kmSSW (200°)9.3 km/hClear
10:55 AM29 °C11 °C33 %1024 hPa16.1 kmSSE (160°)16.7 km/h25.9 km/hClear
11:15 AM30 °C11 °C31 %1024 hPa16.1 kmSouth (170°)14.8 km/h27.8 km/hClear
11:35 AM30 °C11 °C31 %1024 hPa16.1 kmSouth (170°)16.7 km/hClear
11:55 AM33 °C11 °C26 %1024 hPa16.1 kmSSW (200°)14.8 km/hClear
12:15 PM32 °C8 °C22 %1023.7 hPa16.1 kmSSW (210°)14.8 km/hClear
12:35 PM31 °C8 °C24 %1023.7 hPa16.1 kmWSW (240°)9.3 km/hClear
12:55 PM31 °C8 °C24 %1023 hPa16.1 kmSW (230°)7.4 km/hClear
1:15 PM32 °C7 °C21 %1023 hPa16.1 kmSW (230°)11.1 km/h25.9 km/hClear
1:35 PM32 °C7 °C21 %1022.7 hPa16.1 kmWest (260°)13 km/hClear
1:55 PM32 °C7 °C21 %1022.4 hPa16.1 kmSW (220°)20.4 km/h27.8 km/hClear
2:15 PM32 °C8 °C22 %1022.4 hPa16.1 kmWest (280°)14.8 km/h25.9 km/hClear
2:35 PM32 °C8 °C22 %1022 hPa16.1 kmWNW (290°)5.6 km/h25.9 km/hClear
2:55 PM34 °C8 °C20 %1021.7 hPa16.1 kmSouth (180°)25.9 km/h31.5 km/hMostly Cloudy
3:15 PM32 °C8 °C22 %1021.7 hPa16.1 kmSouth (190°)18.5 km/h31.5 km/hScattered Clouds
3:35 PM31 °C8 °C24 %1021.7 hPa16.1 kmSW (220°)16.7 km/h27.8 km/hClear
3:55 PM33 °C8 °C21 %1021.7 hPa16.1 kmWSW (250°)7.4 km/h27.8 km/hClear
4:15 PM32 °C8 °C22 %1021.3 hPa16.1 kmSouth (180°)5.6 km/hClear
4:35 PM32 °C8 °C22 %1021.3 hPa16.1 kmSSW (200°)13 km/hMostly Cloudy
4:55 PM32 °C8 °C22 %1021.3 hPa16.1 kmWSW (250°)16.7 km/hThunderstormMostly Cloudy
5:15 PM31 °C8 °C24 %1021 hPa16.1 kmSouth (170°)9.3 km/hThunderstormThunderstorm
5:35 PM32 °C8 °C22 %1021 hPa16.1 kmWest (270°)14.8 km/hThunderstormMostly Cloudy
5:55 PM30 °C8 °C25 %1021.3 hPa16.1 kmSouth (170°)24.1 km/h29.6 km/hOvercast
6:15 PM29 °C8 °C27 %1021.3 hPa16.1 kmSSE (150°)35.2 km/h46.3 km/hThunderstormThunderstorm
6:35 PM28 °C9 °C30 %1022 hPa16.1 kmSSE (160°)14.8 km/hThunderstormOvercast
6:55 PM28 °C9 °C30 %1022.4 hPa16.1 kmESE (120°)11.1 km/hThunderstormMostly Cloudy
7:15 PM25 °C13 °C47 %1023 hPa16.1 kmWNW (300°)24.1 km/hThunderstormThunderstorm
7:35 PM23 °C14 °C57 %1023.7 hPa16.1 kmNNW (330°)29.6 km/hRain-ThunderstormLight Thunderstorms and Rain
7:55 PM22 °C15 °C64 %1024 hPa16.1 kmNNW (340°)27.8 km/h37 km/hRain-ThunderstormLight Thunderstorms and Rain
8:15 PM20 °C15 °C73 %1024 hPa16.1 kmNorth (360°)24.1 km/hThunderstormOvercast
8:35 PM20 °C16 °C78 %1024 hPa16.1 kmNNE (30°)20.4 km/hThunderstormDrizzle
9:15 PM20 °C13 °C64 %1024.4 hPa16.1 kmNNE (20°)29.6 km/h40.7 km/hThunderstormMostly Cloudy
9:35 PM20 °C13 °C64 %1024.7 hPa16.1 kmNNE (30°)29.6 km/h40.7 km/hScattered Clouds
9:55 PM21 °C13 °C60 %1025.1 hPa16.1 kmNE (50°)20.4 km/h25.9 km/hMostly Cloudy
10:15 PM21 °C13 °C60 %1025.4 hPa16.1 kmENE (60°)20.4 km/h29.6 km/hOvercast
10:35 PM21 °C12 °C56 %1025.4 hPa16.1 kmENE (60°)18.5 km/h25.9 km/hOvercast
10:55 PM21 °C12 °C56 %1025.7 hPa16.1 kmENE (60°)13 km/hOvercast
11:15 PM22 °C12 °C53 %1025.7 hPa16.1 kmNNE (30°)16.7 km/hOvercast
11:35 PM22 °C12 °C53 %1025.4 hPa16.1 kmENE (60°)13 km/hOvercast
11:55 PM21 °C12 °C56 %1025.4 hPa16.1 kmENE (60°)18.5 km/h25.9 km/hOvercast
Hourly data recorded from KSEZ, located 0 kilometers away from Rimrock, Arizona







STORIES FROM OUR PARTNERS